Regional Weather Roundup
Issued by NWS Charleston, WV

Home | Current Version | Previous Version | Text Only | Print | Product List | Glossary Off
Versions: 1 2 3 4 5 6 7 8 9 10 11 12 13 14 15 16 17 18 19 20 21 22 23 24 25 26 27 28

000
ASUS41 KRLX 040510
RWRRLX
West Virginia Regional Weather Roundup
National Weather Service Charleston WV
100 AM EDT WED MAY 04 2016

Note: "fair" indicates few or no clouds below 12,000 feet with no
significant weather and/or obstructions to visibility.

WVZ003-040600-
Northern Panhandle of West Virginia

CITY           SKY/WX    TMP DP  RH WIND       PRES   REMARKS
WHEELING       LGT RAIN  52  44  74 NW3       29.80S
$$

WVZ009-040600-
Northwest West Virginia

CITY           SKY/WX    TMP DP  RH WIND       PRES   REMARKS
PARKERSBURG      N/A    N/A N/A N/A MISG        N/A
$$

WVZ006-040600-
Western West Virginia

CITY           SKY/WX    TMP DP  RH WIND       PRES   REMARKS
HUNTINGTON     CLOUDY    53  51  93 W3        29.82F
$$

WVZ015-040600-
West Central West Virginia

CITY           SKY/WX    TMP DP  RH WIND       PRES   REMARKS
CHARLESTON     CLOUDY    55  52  89 W3        29.82F
$$

WVZ022-031-040600-
North Central West Virginia

CITY           SKY/WX    TMP DP  RH WIND       PRES   REMARKS
CLARKSBURG     CLOUDY    50  49  96 CALM      29.80F
MORGANTOWN     MOCLDY    52  48  86 CALM      29.81F
$$

WVZ025-035-042-045-040600-
Southern West Virginia

CITY           SKY/WX    TMP DP  RH WIND       PRES   REMARKS
BECKLEY        CLOUDY    50  48  93 N3        29.84S
LOGAN          NOT AVBL
BLUEFIELD      MOCLDY    48  43  82 SW6       29.85F
LEWISBURG        N/A     47  45  92 CALM      29.82F
$$

WVZ047-040600-
Northern Mountains of West Virginia

CITY           SKY/WX    TMP DP  RH WIND       PRES   REMARKS
ELKINS           N/A     45  43  93 CALM      29.81F FOG
$$

WVZ052-040600-
Eastern Panhandle of West Virginia

CITY           SKY/WX    TMP DP  RH WIND       PRES   REMARKS
MARTINSBURG    CLOUDY    57  57 100 CALM      29.77S FOG
PETERSBURG       N/A     55  51  85 CALM      29.80S
$$




USA.gov is the U.S. government's official web portal to all federal, state and local government web resources and services.